IRIDIUM 33 DEB

Satellite information

Favourite Embed

Satellite Type and Status

DEBRISIN ORBIT

Key statistics

Satellite IRIDIUM 33 DEB at a glance.

Uptime

10158

Days in orbit

Revolutions

≈ 14.5

Per day

Orbit

LEO

Low Earth Orbit

Inclination

86.3

Latest

Satellite identification and parameters

Extended collection of information and parameters for IRIDIUM 33 DEB.

Object identification

Identified? True

Debris? True

Object name: IRIDIUM 33 DEB

International designator: 1997-051NX

Object number (NORAD): 35051

Object ID (CCSDS): 35051

Country: UNITED STATES OF AMERICA (US)

Current information (Y/N): Y

RCS size: SMALL

Orbital parameters

Period: 99.541 minutes

Inclination: 86.3222 deg

SMA: 7114.77 km

Apoapsis: 740.86 km

Periapsis: 732.41 km

RAAN: 78.4251 deg

Eccentricy: 0.0005938

Argument of periapsis: 263.9748 deg

Mean anomaly: 96.0778 deg

Mean motion: 14.46643339 rev/day

Mean motion (dot): 0.00001387 rev/day2

B* drag term: 0.00037903 1/REarth

Two-line elements (TLE)

Creation date: July 6, 2025, 6:05 p.m.

Reference frame: TEME

Reference center: EARTH

Epoch: July 6, 2025, 12:17 a.m. UTC

TLE line 0: 0 IRIDIUM 33 DEB

TLE line 1: 1 35051U 97051NX 25187.01214277 .00001387 00000-0 37903-3 0 9997

TLE line 2: 2 35051 86.3222 78.4251 0005938 263.9748 96.0778 14.46643339846862

Live tracking on map

Real-time ground track for satellite IRIDIUM 33 DEB.

In-orbit conjunctions

A list of the most updated potential collisions computed for object IRIDIUM 33 DEB.

Target Orbit TCA Probability of collision Miss distance Type
CZ-6A DEB LEO 2025-02-05 11:11:05 0.0001257432 758.0 (m) DEBRIS
CZ-6A DEB SSO 2024-11-10 07:01:54 0.0007258894 467.0 (m) DEBRIS
ORBCOMM-X SSO 2024-10-24 20:00:51 0.0002104756 783.0 (m) PAYLOAD

Associated space launch

Iridium provides global mobile telecommunications services using a constellation of 66 low earth orbit satellites in a 86.4° inclined orbit. Although 77 satellites were originally envisioned for the system and spawned the name based on the 77th element in the periodic table, the system has been scaled back. Motorola's Satellite Communications Group designed and manufactured the Iridium satellites with Lockheed Martin providing the LM-700A spacecraft buses.

IRIDIUM 33 DEB was lifted into orbit during the mission ‘Proton-K/17S40 | Iridium 27 to 33’, on board a Proton-K/17S40 space rocket.

The launch took place on Sept. 14, 1997, 1:36 a.m. from 81/23 (81L).

For more information about the launch, click the button.

Launch to space Proton-K/17S40 | Iridium 27 to 33
Proton-K/17S40 | Iridium 27 to 33

Agency: N/A

Status: Launch Successful

Launch date: Sept. 14, 1997, 1:36 a.m. UTC

Rocket: Proton-K/17S40

Launch pad: 81/23 (81L)

Location: Baikonur Cosmodrome, Republic of Kazakhstan

...

Latest news about this satellite

There are no fresh news available about this satellite. Check back as we update our databases every day.


Newsletter sign-up

Weekly statistics, charts and insights to help you stay on top of the space industry.